Time,TemperatureF,DewpointF,PressureIn,WindDirection,WindDirectionDegrees,WindSpeedMPH,WindSpeedGustMPH,Humidity,HourlyPrecipIn,Conditions,Clouds,dailyrainin,SoftwareType,DateUTC
2011-12-19 00:03:00,32.2,22.8,29.79,NNW,337,0.0,0.0,68,0.00,,,0.00,open2300-1.11,2011-12-19 07:03:00,
2011-12-19 00:20:00,31.8,22.8,29.77,NNW,337,0.0,0.0,69,0.00,,,0.00,open2300-1.11,2011-12-19 07:20:00,
2011-12-19 00:33:00,31.1,22.5,29.76,NNW,337,0.0,0.0,70,0.00,,,0.00,open2300-1.11,2011-12-19 07:33:00,
2011-12-19 00:48:00,30.6,21.9,29.76,NNW,337,0.0,0.0,70,0.00,,,0.00,open2300-1.11,2011-12-19 07:48:00,
2011-12-19 01:04:00,30.0,21.7,29.75,NNW,337,0.0,0.0,71,0.00,,,0.00,open2300-1.11,2011-12-19 08:04:00,
2011-12-19 01:18:00,29.8,21.9,29.75,NNW,337,0.0,0.0,72,0.00,,,0.00,open2300-1.11,2011-12-19 08:18:00,
2011-12-19 01:33:00,29.8,22.2,29.75,NNW,337,0.0,0.0,73,0.00,,,0.00,open2300-1.11,2011-12-19 08:33:00,
2011-12-19 01:48:00,29.3,21.7,29.74,NNW,337,0.0,0.0,73,0.00,,,0.00,open2300-1.11,2011-12-19 08:48:00,
2011-12-19 02:03:00,29.7,22.3,29.73,NNW,337,0.0,0.0,74,0.00,,,0.00,open2300-1.11,2011-12-19 09:03:00,
2011-12-19 02:18:00,29.5,22.2,29.74,NNW,337,0.0,0.0,74,0.00,,,0.00,open2300-1.11,2011-12-19 09:18:00,
2011-12-19 02:33:00,29.3,22.0,29.74,NNW,337,0.0,0.0,74,0.00,,,0.00,open2300-1.11,2011-12-19 09:33:00,
2011-12-19 02:48:00,29.3,22.3,29.73,NNW,337,0.0,0.0,75,0.00,,,0.00,open2300-1.11,2011-12-19 09:48:00,
2011-12-19 03:03:00,29.1,22.5,29.73,NNW,337,0.0,0.0,76,0.00,,,0.00,open2300-1.11,2011-12-19 10:03:00,
2011-12-19 03:18:00,29.1,22.5,29.72,NNW,337,0.0,0.0,76,0.00,,,0.00,open2300-1.11,2011-12-19 10:18:00,
2011-12-19 03:33:00,29.1,22.8,29.72,NNW,337,0.0,0.0,77,0.00,,,0.00,open2300-1.11,2011-12-19 10:33:00,
2011-12-19 03:48:00,29.1,22.8,29.71,NNW,337,0.0,0.0,77,0.00,,,0.00,open2300-1.11,2011-12-19 10:48:00,
2011-12-19 04:03:00,29.7,23.6,29.71,North,0,0.0,1.8,78,0.00,,,0.00,open2300-1.11,2011-12-19 11:03:00,
2011-12-19 04:18:00,30.2,24.1,29.70,NNW,337,0.0,0.0,78,0.00,,,0.00,open2300-1.11,2011-12-19 11:18:00,
2011-12-19 04:33:00,30.4,24.3,29.70,NW,315,0.0,0.0,78,0.00,,,0.00,open2300-1.11,2011-12-19 11:33:00,
2011-12-19 04:48:00,30.7,24.4,29.69,NW,315,0.0,0.0,77,0.00,,,0.00,open2300-1.11,2011-12-19 11:48:00,
2011-12-19 05:03:00,30.2,24.1,29.68,NNW,337,0.0,1.1,78,0.00,,,0.00,open2300-1.11,2011-12-19 12:03:00,
2011-12-19 05:18:00,30.0,24.0,29.69,NW,315,0.0,3.6,78,0.00,,,0.00,open2300-1.11,2011-12-19 12:18:00,
2011-12-19 05:33:00,29.7,23.9,29.69,NW,315,3.6,3.6,79,0.00,,,0.00,open2300-1.11,2011-12-19 12:33:00,
2011-12-19 05:48:00,29.5,24.1,29.69,NW,315,1.8,5.1,80,0.00,,,0.00,open2300-1.11,2011-12-19 12:48:00,
2011-12-19 06:03:00,29.1,23.7,29.68,NNW,337,4.5,4.5,80,0.00,,,0.00,open2300-1.11,2011-12-19 13:03:00,
2011-12-19 06:18:00,29.1,23.7,29.69,WNW,292,4.0,6.5,80,0.00,,,0.00,open2300-1.11,2011-12-19 13:18:00,
2011-12-19 06:33:00,29.1,24.0,29.69,NNW,337,0.0,4.0,81,0.00,,,0.00,open2300-1.11,2011-12-19 13:33:00,
2011-12-19 06:48:00,29.3,24.2,29.69,WNW,292,1.3,2.7,81,0.00,,,0.00,open2300-1.11,2011-12-19 13:48:00,
2011-12-19 07:03:00,29.5,24.4,29.69,NNW,337,4.9,4.9,81,0.00,,,0.00,open2300-1.11,2011-12-19 14:03:00,
2011-12-19 07:18:00,29.8,24.7,29.71,WNW,292,1.8,5.8,81,0.00,,,0.00,open2300-1.11,2011-12-19 14:18:00,
2011-12-19 07:33:00,29.8,24.7,29.70,NW,315,2.5,2.5,81,0.00,,,0.00,open2300-1.11,2011-12-19 14:33:00,
2011-12-19 07:48:00,30.2,25.1,29.70,WNW,292,3.8,5.8,81,0.00,,,0.00,open2300-1.11,2011-12-19 14:48:00,
2011-12-19 08:03:00,30.7,25.3,29.70,NW,315,0.0,4.2,80,0.00,,,0.00,open2300-1.11,2011-12-19 15:03:00,
2011-12-19 08:18:00,30.7,25.3,29.70,WNW,292,0.0,0.0,80,0.00,,,0.00,open2300-1.11,2011-12-19 15:18:00,
2011-12-19 08:33:00,30.7,25.3,29.70,WNW,292,0.0,1.3,80,0.00,,,0.00,open2300-1.11,2011-12-19 15:33:00,
2011-12-19 08:48:00,31.1,25.7,29.70,WNW,292,0.0,0.0,80,0.00,,,0.00,open2300-1.11,2011-12-19 15:48:00,
2011-12-19 09:03:00,31.6,26.2,29.70,WNW,292,0.0,3.1,80,0.00,,,0.00,open2300-1.11,2011-12-19 16:03:00,
2011-12-19 09:18:00,32.4,26.9,29.70,WNW,292,0.0,4.7,80,0.00,,,0.00,open2300-1.11,2011-12-19 16:18:00,
2011-12-19 09:33:00,32.9,27.1,29.70,WNW,292,4.2,4.9,79,0.00,,,0.00,open2300-1.11,2011-12-19 16:33:00,
2011-12-19 09:48:00,33.6,27.4,29.72,NW,315,0.0,4.2,78,0.00,,,0.00,open2300-1.11,2011-12-19 16:48:00,
2011-12-19 10:03:00,34.3,27.8,29.72,NW,315,0.0,0.0,77,0.00,,,0.00,open2300-1.11,2011-12-19 17:03:00,
2011-12-19 10:18:00,35.1,27.9,29.72,NW,315,0.0,0.0,75,0.00,,,0.00,open2300-1.11,2011-12-19 17:18:00,
2011-12-19 10:33:00,35.8,28.3,29.72,NW,315,0.0,0.0,74,0.00,,,0.00,open2300-1.11,2011-12-19 17:33:00,
2011-12-19 10:48:00,36.3,28.5,29.72,WSW,247,2.9,2.9,73,0.00,,,0.00,open2300-1.11,2011-12-19 17:48:00,
2011-12-19 11:03:00,37.0,28.5,29.72,WNW,292,2.7,7.4,71,0.00,,,0.00,open2300-1.11,2011-12-19 18:03:00,
2011-12-19 11:18:00,37.2,28.4,29.72,NW,315,8.3,8.7,70,0.00,,,0.00,open2300-1.11,2011-12-19 18:18:00,
2011-12-19 11:33:00,38.1,28.9,29.72,NW,315,4.0,8.3,69,0.00,,,0.00,open2300-1.11,2011-12-19 18:33:00,
2011-12-19 11:48:00,39.0,28.9,29.71,NW,315,5.4,6.7,67,0.00,,,0.00,open2300-1.11,2011-12-19 18:48:00,
2011-12-19 12:03:00,40.3,29.4,29.70,NNW,337,0.0,7.6,65,0.00,,,0.00,open2300-1.11,2011-12-19 19:03:00,
2011-12-19 12:18:00,41.7,29.6,29.70,WNW,292,1.1,6.0,62,0.00,,,0.00,open2300-1.11,2011-12-19 19:18:00,
2011-12-19 12:33:00,42.4,29.9,29.71,WNW,292,4.2,5.1,61,0.00,,,0.00,open2300-1.11,2011-12-19 19:33:00,
2011-12-19 12:48:00,43.2,29.8,29.71,NW,315,0.0,4.2,59,0.00,,,0.00,open2300-1.11,2011-12-19 19:48:00,
2011-12-19 13:03:00,44.4,30.6,29.70,WNW,292,0.0,1.1,58,0.00,,,0.00,open2300-1.11,2011-12-19 20:03:00,
2011-12-19 13:18:00,45.1,30.3,29.71,WNW,292,0.7,1.1,56,0.00,,,0.00,open2300-1.11,2011-12-19 20:18:00,
2011-12-19 13:33:00,45.3,30.5,29.71,WNW,292,4.2,5.1,56,0.00,,,0.00,open2300-1.11,2011-12-19 20:33:00,
2011-12-19 13:48:00,46.6,31.2,29.70,WNW,292,3.1,8.1,55,0.00,,,0.00,open2300-1.11,2011-12-19 20:48:00,
2011-12-19 14:03:00,46.9,31.1,29.71,WNW,292,7.4,7.4,54,0.00,,,0.00,open2300-1.11,2011-12-19 21:03:00,
2011-12-19 14:18:00,46.9,30.6,29.71,WNW,292,2.7,7.4,53,0.00,,,0.00,open2300-1.11,2011-12-19 21:18:00,
2011-12-19 14:33:00,46.9,30.1,29.72,WNW,292,0.0,5.4,52,0.00,,,0.00,open2300-1.11,2011-12-19 21:33:00,
2011-12-19 14:48:00,47.8,31.0,29.71,WNW,292,2.0,5.4,52,0.00,,,0.00,open2300-1.11,2011-12-19 21:48:00,
2011-12-19 15:03:00,48.7,30.9,29.71,WNW,292,4.9,7.4,50,0.00,,,0.00,open2300-1.11,2011-12-19 22:03:00,
2011-12-19 15:19:00,49.1,31.3,29.72,WNW,292,0.0,5.8,50,0.00,,,0.00,open2300-1.11,2011-12-19 22:19:00,
2011-12-19 15:33:00,48.4,31.5,29.73,WNW,292,2.5,5.1,52,0.00,,,0.00,open2300-1.11,2011-12-19 22:33:00,
2011-12-19 15:48:00,46.9,30.6,29.73,NW,315,0.0,5.1,53,0.00,,,0.00,open2300-1.11,2011-12-19 22:48:00,
2011-12-19 16:03:00,45.5,30.6,29.73,WNW,292,5.6,7.2,56,0.00,,,0.00,open2300-1.11,2011-12-19 23:03:00,
2011-12-19 16:18:00,44.4,30.1,29.73,WNW,292,2.2,5.6,57,0.00,,,0.00,open2300-1.11,2011-12-19 23:18:00,
2011-12-19 16:33:00,43.5,29.2,29.74,WNW,292,0.0,2.2,57,0.00,,,0.00,open2300-1.11,2011-12-19 23:33:00,
2011-12-19 16:48:00,42.6,28.4,29.74,NNW,337,0.0,0.9,57,0.00,,,0.00,open2300-1.11,2011-12-19 23:48:00,
2011-12-19 17:03:00,41.9,27.7,29.75,NNW,337,0.0,4.9,57,0.00,,,0.00,open2300-1.11,2011-12-20 00:03:00,
2011-12-19 17:18:00,41.2,27.5,29.76,NNW,337,0.0,0.9,58,0.00,,,0.00,open2300-1.11,2011-12-20 00:18:00,
2011-12-19 17:33:00,40.6,26.5,29.76,NW,315,0.0,0.0,57,0.00,,,0.00,open2300-1.11,2011-12-20 00:33:00,
2011-12-19 17:48:00,39.6,25.9,29.77,NW,315,0.0,0.0,58,0.00,,,0.00,open2300-1.11,2011-12-20 00:48:00,
2011-12-19 18:03:00,38.5,25.3,29.78,NW,315,0.0,0.0,59,0.00,,,0.00,open2300-1.11,2011-12-20 01:03:00,
2011-12-19 18:18:00,37.6,25.0,29.78,NW,315,0.0,0.0,60,0.00,,,0.00,open2300-1.11,2011-12-20 01:18:00,
2011-12-19 18:33:00,36.1,24.0,29.79,NW,315,0.0,0.0,61,0.00,,,0.00,open2300-1.11,2011-12-20 01:33:00,
2011-12-19 18:48:00,35.4,24.1,29.79,NW,315,0.0,0.0,63,0.00,,,0.00,open2300-1.11,2011-12-20 01:48:00,
2011-12-19 19:03:00,34.3,23.4,29.80,NW,315,0.0,0.0,64,0.00,,,0.00,open2300-1.11,2011-12-20 02:03:00,
2011-12-19 19:18:00,33.4,23.2,29.81,NW,315,0.0,0.0,66,0.00,,,0.00,open2300-1.11,2011-12-20 02:18:00,
2011-12-19 19:33:00,32.5,23.1,29.81,NW,315,0.0,0.0,68,0.00,,,0.00,open2300-1.11,2011-12-20 02:33:00,
2011-12-19 19:48:00,32.0,23.0,29.81,NW,315,0.0,0.0,69,0.00,,,0.00,open2300-1.11,2011-12-20 02:48:00,
2011-12-19 20:03:00,32.2,23.5,29.82,NW,315,0.0,0.0,70,0.00,,,0.00,open2300-1.11,2011-12-20 03:03:00,
2011-12-19 20:18:00,32.2,23.5,29.82,NW,315,0.0,0.0,70,0.00,,,0.00,open2300-1.11,2011-12-20 03:18:00,
2011-12-19 20:33:00,31.8,23.5,29.82,NNE,22,0.0,0.0,71,0.00,,,0.00,open2300-1.11,2011-12-20 03:33:00,
2011-12-19 20:48:00,31.8,23.5,29.83,NNE,22,0.0,0.0,71,0.00,,,0.00,open2300-1.11,2011-12-20 03:48:00,
2011-12-19 21:03:00,31.6,23.6,29.84,NNE,22,0.0,0.0,72,0.00,,,0.00,open2300-1.11,2011-12-20 04:03:00,
2011-12-19 21:18:00,31.6,23.6,29.84,NNE,22,0.0,0.0,72,0.00,,,0.00,open2300-1.11,2011-12-20 04:18:00,
2011-12-19 21:33:00,31.6,23.6,29.84,NNE,22,0.0,0.0,72,0.00,,,0.00,open2300-1.11,2011-12-20 04:33:00,
2011-12-19 21:48:00,31.8,24.1,29.85,NNE,22,0.0,0.0,73,0.00,,,0.00,open2300-1.11,2011-12-20 04:48:00,
2011-12-19 22:03:00,32.5,25.5,29.85,ENE,67,0.0,5.8,75,0.00,,,0.00,open2300-1.11,2011-12-20 05:03:00,
2011-12-19 22:18:00,34.9,28.0,29.86,East,90,6.0,10.5,76,0.00,,,0.00,open2300-1.11,2011-12-20 05:18:00,
2011-12-19 22:33:00,35.4,28.5,29.86,East,90,6.5,7.6,76,0.00,,,0.00,open2300-1.11,2011-12-20 05:33:00,
2011-12-19 22:48:00,35.4,28.9,29.86,ENE,67,6.0,6.9,77,0.00,,,0.00,open2300-1.11,2011-12-20 05:48:00,
2011-12-19 23:03:00,35.2,28.7,29.87,East,90,2.5,6.0,77,0.00,,,0.00,open2300-1.11,2011-12-20 06:03:00,
2011-12-19 23:18:00,35.2,29.0,29.87,SE,135,0.0,6.9,78,0.00,,,0.00,open2300-1.11,2011-12-20 06:18:00,
2011-12-19 23:33:00,35.2,29.3,29.88,East,90,0.0,6.5,79,0.00,,,0.00,open2300-1.11,2011-12-20 06:33:00,
2011-12-19 23:48:00,35.2,29.7,29.88,SSE,157,0.0,2.5,80,0.00,,,0.00,open2300-1.11,2011-12-20 06:48:00,